Overview Statistics Trail Chart Weather Telemetry Raw packets
 

This is the latest recevied weather packets stored in our database for station/object K5FEP. If no packets are shown the sender has not sent any weather packets the latest 10 day(s).

<< 16 17 18 19 20 21 22 >>
Time Temp. Humidity Pressure Rain* Wind** Luminosity Snow
1788526124 28.33° C 74% 1015.6 hPa 0 mm - 248 W/m² -
1788525821 27.78° C 74% 1015.5 hPa 0 mm - 231 W/m² -
1788525516 27.78° C 75% 1015.4 hPa 0 mm - 212 W/m² -
1788525211 27.22° C 76% 1015.6 hPa 0 mm - 194 W/m² -
1788524907 27.22° C 77% 1015.6 hPa 0 mm - 88 W/m² -
1788524606 27.22° C 77% 1015.5 hPa 0 mm - 80 W/m² -
1788524301 26.67° C 78% 1015.4 hPa 0 mm - 100 W/m² -
1788523998 26.67° C 79% 1015.6 hPa 0 mm - 66 W/m² -
1788523694 26.67° C 80% 1015.4 hPa 0 mm - 68 W/m² -
1788523389 26.11° C 80% 1015.4 hPa 0 mm - 87 W/m² -
1788523084 25.56° C 82% 1015.5 hPa 0 mm - 69 W/m² -
1788522780 25.56° C 83% 1015.3 hPa 0 mm - 65 W/m² -
1788522474 25.56° C 83% 1015.3 hPa 0 mm - 51 W/m² -
1788522174 25° C 84% 1015.5 hPa 0 mm - 47 W/m² -
1788521869 25° C 84% 1015.6 hPa 0 mm - 43 W/m² -
1788521568 25° C 84% 1015.5 hPa 0 mm - 39 W/m² -
1788521263 25° C 85% 1015.6 hPa 0 mm - 35 W/m² -
1788520959 25° C 85% 1015.5 hPa 0 mm - 30 W/m² -
1788520655 25° C 85% 1015.4 hPa 0 mm - 26 W/m² -
1788520350 25° C 85% 1015.4 hPa 0 mm - 21 W/m² -
1788520045 25° C 85% 1015.3 hPa 0 mm - 17 W/m² -
1788519744 25° C 85% 1015.3 hPa 0 mm - 12 W/m² -
1788519440 25° C 84% 1015.3 hPa 0 mm - 9 W/m² -
1788519134 25° C 84% 1015.3 hPa 0 mm - 5 W/m² -
1788518830 25° C 84% 1015 hPa 0 mm - 3 W/m² -

* Rain latest hour (hover to see other rain measurements)
** Current wind speed in m/s (hover to see current wind gust speed)